Location: Gadern
(49.5873°N, 8.8138°E)
Time: 00:31:54
(UTC+00:00)

Cosmos 2084 Rocket - Pass Details

Date: 19 May 2025
Orbit: 542 x 579 km, 62.8° (Epoch: 15 June)

Event Time Altitude Azimuth Distance (km) Brightness Sun altitude
Rises 21:54:05 0° 237° (WSW) 2,782 6.8 -17.8°
Reaches altitude 10° 21:56:23 10° 242° (WSW) 1,883 6.0 -17.9°
Maximum altitude 22:00:31 52° 319° (NW) 719 4.2 -18.2°
Drops below altitude 10° 22:04:40 10° 37° (NE) 1,874 6.5 -18.4°
Sets 22:06:56 0° 42° (NE) 2,767 7.3 -18.5°
